Find Starlink 32823

NORAD ID: 62823 Int'l Des: 2025-018 Owner: SPXS Country: US Constellation: starlink operational
LEOCIRCULAR

リアルタイム位置

3D地球を読み込み中...

Starlink 32823について

説明を読み込み中...

次回通過

Passes for default location (London). Set your location on the main map for personalized predictions.

高度履歴

Loading altitude history...

軌道要素

1 62823U 25018T 26125.91668981 .01778086 00000-0 19050-1 0 9994
2 62823 53.1645 42.2887 0000982 91.4750 174.0372 15.60244981 5811
Epoch: May 5, 2026 • Age: 7 hours

現在のステータス

高度 389.6 km
速度 7.68 km/s
衛星直下点 50.48°N, 168.35°E
打ち上げ日 Jan 24, 2025
運用期間 1.2 years
タイプ internet

技術仕様

分類 Payload
質量 730.00 kg
乾燥質量 700.00 kg
総質量 730.00 kg
長さ 0.30 m
直径 4.10 m
スパン 29.00 m
形状 Box + pan
製造者 SPXS
バスタイプ Starlink V2M
フェーズステータス In Orbit
所有者/国 SPXS/US

Most Searched